Location: Buena Vista Beach
(41.8098°N, 81.1279°W)
Time: 08:34:46
(UTC+00:00)

SL-08 R/B - Pass Details

Date: 29 October 2020
Orbit: 946 x 994 km, 83.0° (Epoch: 28 November)

Event Time Altitude Azimuth Distance (km) Brightness Sun altitude
Rises 23:15:33 0° 355° (N) 3,653 7.5 -10.5°
Reaches altitude 10° 23:18:06 10° 359° (N) 2,697 6.7 -11.0°
Maximum altitude 23:24:13 63° 80° (E) 1,057 4.4 -12.1°
Drops below altitude 10° 23:30:13 10° 161° (SSE) 2,659 6.7 -13.2°
Sets 23:32:43 0° 165° (SSE) 3,599 7.4 -13.7°
